Flag for U.S.A. Weather past 2 weeks in Vallejo, California, U.S.A.

Now
53 °F

Clear.


Feels Like: 49 °F
Forecast: 51 / 66 °F
Wind: 13 mph from West

Location: Napa County Airport

Current Time: Mar 31, 2015 at 12:36:00 AM

Latest Report: Mar 30, 2015 at 11:54 PM


Visibility: 10 mi

Pressure: 30.01 "Hg

Humidity: 74%

Dew point: 45 °F

Location of VallejoLocation

Historic Weather in Vallejo — Graph

°F

Vallejo temperature yesterday

Maximum temperature yesterday: 69 °F (at 3:54 PM)
Minimum temperature yesterday: 44 °F (at 3:54 AM)
Average temperature yesterday: 56 °F

Past Weeks' High & Low Weather Summary

 TemperatureHumidityPressure
High79 °F (Mar 26, 1:54 PM)100% (Mar 19, 6:54 AM)30.28 "Hg (Mar 19, 6:54 AM)
Low38 °F (Mar 20, 5:04 AM)39% (Mar 26, 1:54 PM)29.94 "Hg (Mar 19, 5:54 PM)
Average56 °F79%30.09 "Hg
* Reported Mar 15 10:54 PM — Mar 30 10:54 PM, Vallejo, Weather by CustomWeather, © 2015

Note: Actual official high and low records may vary slightly from our data, if they occured in-between our weather recording intervals... More about our weather records

Advertising

Vallejo weather history for previous 24 hours

 ConditionsComfort  
Time TempWeatherWind HumidityBarometerVisibility
10:54 PM
Mon, Mar 30
53 °FClear.18 mph80%30.00 "Hg10 mi
9:54 PM53 °FClear.20 mph80%30.00 "Hg10 mi
8:54 PM53 °FClear.9 mph80%30.00 "Hg10 mi
7:54 PM55 °FSunny.No wind74%29.97 "Hg10 mi
6:54 PM58 °FSunny.6 mph72%29.96 "Hg10 mi
5:54 PM64 °FSunny.15 mph58%29.96 "Hg10 mi
4:54 PM67 °FSunny.16 mph57%29.96 "Hg10 mi
3:54 PM69 °FSunny.16 mph59%29.97 "Hg10 mi
2:54 PM68 °FSunny.14 mph61%29.98 "Hg10 mi
1:54 PM67 °FSunny.8 mph63%30.00 "Hg10 mi
12:54 PM65 °FSunny.9 mph66%30.02 "Hg10 mi
11:54 AM63 °FSunny.7 mph73%30.03 "Hg10 mi
10:54 AM62 °FSunny.5 mph75%30.04 "Hg10 mi
9:54 AM59 °FSunny.5 mph78%30.03 "Hg10 mi
8:54 AM55 °FSunny.3 mph87%30.01 "Hg10 mi
7:54 AM49 °FClear.6 mph93%30.00 "Hg10 mi
6:54 AM47 °FPassing clouds.6 mph97%30.00 "Hg9 mi
5:54 AM47 °FClear.3 mph97%29.99 "Hg10 mi
4:54 AM48 °FClear.No wind96%29.98 "Hg9 mi
3:54 AM44 °FFog.No wind100%29.98 "Hg6 mi
2:54 AM47 °FClear.3 mph97%29.98 "Hg10 mi
1:54 AM51 °FClear.3 mph92%30.00 "Hg10 mi
12:54 AM47 °FClear.No wind93%30.01 "Hg10 mi
Weather by CustomWeather, © 2015

See weather overviewHow to use our weather pages